Terminal Aerodrome Forecast
Issued by NWS Sterling, VA

Current Version | Previous Version | Graphics & Text | Print | Product List | Glossary On
Versions: 1 2 3 4 5 6 7 8 9 10 11 12 13 14 15 16 17 18 19 20 21
000
FTUS41 KLWX 230800 AAA
TAFDCA
TAF AMD
KDCA 230856Z 2309/2406 32011G22KT P6SM OVC035
     FM231000 32011KT P6SM BKN050
     FM232200 32012KT P6SM SCT090=

USA.gov is the U.S. government's official web portal to all federal, state and local government web resources and services.